EW2173 Weather Reports


time (UTC)temp
C
wind
direction
speed
KPH
gust
KPH
rain 1hr
cm
rain 24hr
cm
rain mn
cm
humidity
%
barometer
mb
20260505121525 17 106 0.0 4.8 0.00 0.00 0.00 63 1015.4
20260505120025 16 77 0.0 1.6 0.00 0.00 0.00 62 1015.4
20260505114522 16 36 3.2 6.4 0.00 0.00 0.00 61 1015.3
20260505113022 16 236 0.0 4.8 0.00 0.00 0.00 63 1015.3
20260505111521 15 236 0.0 4.8 0.00 0.00 0.00 65 1015.1
20260505101529 15 101 1.6 6.4 0.00 0.00 0.00 67 1014.8
20260505100035 14 110 1.6 11.3 0.00 0.00 0.00 67 1014.8
20260505094513 15 96 4.8 9.7 0.00 0.00 0.00 67 1014.8
20260505093011 15 100 4.8 8.0 0.00 0.00 0.00 66 1015.0
20260505091514 15 100 6.4 9.7 0.00 0.00 0.00 67 1015.0
20260505090007 15 120 4.8 9.7 0.00 0.00 0.00 63 1015.0
20260505084506 16 27 8.0 16.1 0.00 0.00 0.00 60 1014.7
20260505083004 16 60 8.0 12.9 0.00 0.00 0.00 61 1014.5
20260505081629 16 24 8.0 16.1 0.00 0.00 0.00 61 1014.4
20260505074556 16 65 11.3 29.0 0.00 0.00 0.00 58 1014.1
20260505073058 16 68 9.7 22.5 0.00 0.00 0.00 58 1014.1
20260505071555 17 46 11.3 24.1 0.00 0.00 0.00 58 1014.3
20260505070053 17 39 8.0 22.5 0.00 0.00 0.00 58 1014.3
20260505064547 17 16 12.9 22.5 0.00 0.00 0.00 59 1014.2
20260505063049 17 8 9.7 22.5 0.00 0.00 0.00 59 1014.3
20260505061545 17 94 9.7 22.5 0.00 0.00 0.00 59 1014.3
20260505060039 17 46 12.9 22.5 0.00 0.00 0.00 59 1014.2
20260505054544 17 9 6.4 20.9 0.00 0.00 0.00 60 1014.2
20260505053040 17 17 8.0 20.9 0.00 0.00 0.00 59 1014.3
20260505051539 17 47 8.0 16.1 0.00 0.00 0.00 59 1014.2
20260505041525 17 94 6.4 16.1 0.00 0.00 0.00 59 1013.9
20260505040021 18 6 6.4 22.5 0.00 0.00 0.00 58 1014.0
20260505034520 18 24 9.7 17.7 0.00 0.00 0.00 58 1014.1
20260505033020 18 18 6.4 19.3 0.00 0.00 0.00 57 1014.1
20260505031522 18 34 8.0 19.3 0.00 0.00 0.00 56 1014.2
20260505030019 18 51 9.7 24.1 0.00 0.00 0.00 55 1014.3
20260505024518 19 48 6.4 16.1 0.00 0.00 0.00 54 1014.4
20260505023021 20 44 8.0 19.3 0.00 0.00 0.00 53 1014.5
20260505021516 20 62 9.7 22.5 0.00 0.00 0.00 51 1014.4
20260505020015 20 47 11.3 29.0 0.00 0.00 0.00 52 1014.2
20260505014515 20 53 11.3 22.5 0.00 0.00 0.00 53 1014.2
20260505013015 20 115 9.7 24.1 0.00 0.00 0.00 53 1014.1
20260505011520 21 63 12.9 24.1 0.00 0.00 0.00 52 1014.0
20260505010023 21 71 9.7 20.9 0.00 0.00 0.00 51 1013.8
20260505004513 21 56 9.7 17.7 0.00 0.00 0.00 50 1013.6
20260505003012 21 59 11.3 17.7 0.00 0.00 0.00 48 1013.6
20260505001512 22 80 11.3 19.3 0.00 0.00 0.00 46 1013.6
20260505000016 22 74 8.0 24.1 0.00 0.00 0.00 45 1013.5
20260504234511 22 40 8.0 19.3 0.00 0.00 0.00 46 1013.5
20260504233009 22 73 6.4 17.7 0.00 0.00 0.00 46 1013.5
20260504231509 22 78 9.7 19.3 0.00 0.00 0.00 45 1013.5
20260504230008 22 56 9.7 17.7 0.00 0.00 0.00 45 1013.5
20260504224507 22 24 9.7 20.9 0.00 0.00 0.00 44 1013.5
20260504223005 22 84 12.9 27.4 0.00 0.00 0.00 42 1013.7
20260504221517 23 45 8.0 22.5 0.00 0.00 0.00 41 1013.7
20260504220004 23 86 9.7 25.7 0.00 0.00 0.00 39 1013.7
20260504214503 24 92 4.8 27.4 0.00 0.00 0.00 40 1013.7
20260504213002 23 269 11.3 25.7 0.00 0.00 0.00 41 1013.7
20260504211559 24 110 4.8 17.7 0.00 0.00 0.00 43 1013.9
20260504210058 23 150 6.4 20.9 0.00 0.00 0.00 44 1014.0
20260504204604 24 353 8.0 20.9 0.00 0.00 0.00 43 1014.3
20260504203055 23 63 4.8 27.4 0.00 0.00 0.00 45 1014.4
20260504201553 24 71 6.4 19.3 0.00 0.00 0.00 43 1014.4
20260504200050 23 127 6.4 24.1 0.00 0.00 0.00 46 1014.8
20260504194555 23 153 12.9 24.1 0.00 0.00 0.00 45 1014.8
20260504193045 23 220 11.3 20.9 0.00 0.00 0.00 46 1015.1
20260504191543 23 227 4.8 12.9 0.00 0.00 0.00 46 1015.4
20260504190041 23 98 3.2 19.3 0.00 0.00 0.00 47 1015.6
20260504184538 23 87 4.8 16.1 0.00 0.00 0.00 44 1015.8
20260504183035 23 20 12.9 24.1 0.00 0.00 0.00 44 1016.1
20260504181537 22 53 4.8 20.9 0.00 0.00 0.00 46 1016.2
20260504180035 23 98 3.2 11.3 0.00 0.00 0.00 45 1016.4
20260504174530 22 53 8.0 19.3 0.00 0.00 0.00 45 1016.6
20260504173030 22 81 0.0 12.9 0.00 0.00 0.00 47 1016.8
20260504171530 20 216 1.6 24.1 0.00 0.00 0.00 50 1017.0
20260504150112 17 53 11.3 32.2 0.00 0.00 0.00 52 1018.8